Weather History for KPIH - October, 2011

Change the Weather History Date:

Sunday, October 2, 2011

  Actual Average Record
Temperature  
Mean Temperature 70 °F 52 °F  
Max Temperature 81 °F 68 °F 89 °F (2010)
Min Temperature 59 °F 37 °F 23 °F (2009)
Degree Days  
Heating Degree Days 0 13  
Month to date heating degree days 0 25  
Since 1 July heating degree days 119 274  
Cooling Degree Days 5 0  
Month to date cooling degree days 7 0  
Year to date cooling degree days 369 392  
Growing Degree Days 20 (Base 50)    
Moisture  
Dew Point 40 °F    
Average Humidity 31    
Maximum Humidity 43    
Minimum Humidity 19    
Precipitation  
Precipitation T in 0.03 in 1.68 in (1976)
Month to date precipitation T 0.06  
Year to date precipitation 8.99 8.97  
Snow  
Snow 0.00 in - - ()
Month to date snowfall 0.0  
Since 1 July snowfall 0.0  
Since 1 September snowfall 0.0  
Snow Depth 0.00 in    
Sea Level Pressure  
Sea Level Pressure 29.91 in    
Wind  
Wind Speed 9 mph (SW)    
Max Wind Speed 25 mph    
Max Gust Speed 32 mph    
Visibility 10 miles    
Events Rain    
T = Trace of Precipitation, MM = Missing Value Source: NWS Daily Summary

Daily Weather History Graph

Daily Weather History Graph

Search for Another Location

Airport or City:

Trip Planner

Search our weather history database for the weather conditions in past years. The results will help you decide how hot, cold, wet, or windy it might be!

Date:

Astronomy

Oct. 02, 2011 Rise Set
Actual Time 7:28 AM MDT 7:10 PM MDT
Civil Twilight 7:00 AM MDT 7:38 PM MDT
Nautical Twilight 6:27 AM MDT 8:11 PM MDT
Astronomical Twilight 5:54 AM MDT 8:44 PM MDT
Moon 1:47 PM MDT (10/2) 11:04 PM MDT (10/2)
Length of Visible Light 12h 38m
Length of Day
11h 41m
Waxing Crescent, 35% of the Moon is Illuminated
Oct 2
Waxing Crescent
Oct 3
First Quarter
Oct 11
Full
Oct 19
Last Quarter
Oct 26
New

Hourly Weather History & Observations

Time (MDT) Temp. Dew Point Humidity Pressure Visibility Wind Dir Wind Speed Gust Speed Precip Events Conditions
12:53 AM 73.0 °F 39.9 °F 30% 29.86 in 10.0 mi South 13.8 mph - N/A   Scattered Clouds
1:53 AM 73.9 °F 41.0 °F 30% 29.85 in 10.0 mi South 16.1 mph 25.3 mph N/A   Scattered Clouds
2:53 AM 73.0 °F 41.0 °F 31% 29.85 in 7.0 mi South 16.1 mph 26.5 mph N/A   Scattered Clouds
3:53 AM 73.0 °F 42.1 °F 33% 29.84 in 10.0 mi South 17.3 mph 25.3 mph N/A   Scattered Clouds
4:53 AM 72.0 °F 41.0 °F 33% 29.85 in 10.0 mi Variable 6.9 mph - N/A   Scattered Clouds
5:53 AM 71.1 °F 42.1 °F 35% 29.85 in 10.0 mi South 19.6 mph 25.3 mph N/A   Clear
6:53 AM 70.0 °F 42.1 °F 36% 29.89 in 10.0 mi South 13.8 mph 21.9 mph N/A   Partly Cloudy
7:06 AM 69.8 °F 42.8 °F 38% 30.04 in 10.0 mi SSW 25.3 mph 32.2 mph N/A   Mostly Cloudy
7:53 AM 66.0 °F 44.1 °F 45% 29.93 in 10.0 mi South 10.4 mph - 0.00 in Rain Light Rain
8:53 AM 66.0 °F 44.1 °F 45% 29.97 in 10.0 mi SW 15.0 mph - 0.00 in   Scattered Clouds
9:53 AM 69.1 °F 45.0 °F 42% 29.97 in 10.0 mi SSW 8.1 mph - N/A   Partly Cloudy
10:53 AM 75.0 °F 39.9 °F 28% 29.97 in 10.0 mi SSW 11.5 mph - N/A   Scattered Clouds
11:53 AM 78.1 °F 39.9 °F 25% 29.96 in 10.0 mi West 10.4 mph 16.1 mph N/A   Clear
12:00 PM - - N/A% - - North - - N/A   Unknown
12:53 PM 75.0 °F 39.9 °F 28% 29.96 in 10.0 mi West 10.4 mph - N/A   Scattered Clouds
1:53 PM 79.0 °F 34.0 °F 20% 29.94 in 10.0 mi WNW 10.4 mph - N/A   Partly Cloudy
2:53 PM 79.0 °F 34.0 °F 20% 29.91 in 10.0 mi WNW 10.4 mph - N/A   Partly Cloudy
3:53 PM 79.0 °F 36.0 °F 21% 29.90 in 10.0 mi NW 6.9 mph - N/A   Partly Cloudy
4:53 PM 79.0 °F 36.0 °F 21% 29.89 in 10.0 mi NNW 4.6 mph - N/A   Partly Cloudy
5:53 PM 78.1 °F 37.9 °F 24% 29.89 in 10.0 mi North 3.5 mph - N/A   Partly Cloudy
6:53 PM 71.1 °F 42.1 °F 35% 29.90 in 10.0 mi Calm Calm - N/A   Partly Cloudy
7:53 PM 63.0 °F 39.9 °F 43% 29.93 in 10.0 mi South 6.9 mph - N/A   Clear
8:53 PM 64.0 °F 39.0 °F 40% 29.93 in 10.0 mi Calm Calm - N/A   Clear
9:53 PM 66.0 °F 37.0 °F 34% 29.92 in 10.0 mi Calm Calm - N/A   Clear
10:53 PM 60.1 °F 37.9 °F 44% 29.92 in 10.0 mi NE 4.6 mph - N/A   Clear
11:53 PM 63.0 °F 39.0 °F 41% 29.91 in 10.0 mi NNE 4.6 mph - N/A   Clear